Kimball, NE

10:11 PM MDT on April 22, 2018 (GMT -0600)
Kimball Municipal-Arraj

Weather History for KIBM - May, 2012

Change the Weather History Date:

Saturday, May 12, 2012

  Actual Average (KSNY) Record (KSNY)
Temperature  
Mean Temperature 42 °F -  
Max Temperature 49 °F 63 °F 90 °F (1962)
Min Temperature 34 °F 36 °F 20 °F (1953)
Degree Days  
Heating Degree Days 24    
Moisture  
Dew Point 36 °F    
Average Humidity 82    
Maximum Humidity 93    
Minimum Humidity 68    
Precipitation  
Precipitation 0.05 in - - ()
Sea Level Pressure  
Sea Level Pressure 30.34 in    
Wind  
Wind Speed 7 mph (SSE)    
Max Wind Speed 15 mph    
Max Gust Speed 22 mph    
Visibility 10 miles    
Events Rain    
Averages and records for this station are not official NWS values.
T = Trace of Precipitation, MM = Missing Value Source: NWS Daily Summary

Daily Weather History Graph

Daily Weather History Graph

Search for Another Location

Airport or City:

Astronomy

May. 12, 2012 Rise Set
Actual Time 6:38 AM CDT 9:03 PM CDT
Civil Twilight 6:07 AM CDT 9:35 PM CDT
Nautical Twilight 5:29 AM CDT 10:13 PM CDT
Astronomical Twilight 4:46 AM CDT 10:56 PM CDT
Moon 2:18 AM CDT (5/12) 1:21 PM CDT (5/12)
Length of Visible Light 15h 27m
Length of Day
14h 24m
Waning Gibbous, 52% of the Moon is Illuminated
May 12
Waning Gibbous
May 12
Last Quarter
May 20
New
May 28
First Quarter
Jun 4
Full

Hourly Weather History & Observations

Time (CDT) Temp. Windchill Dew Point Humidity Pressure Visibility Wind Dir Wind Speed Gust Speed Precip Events Conditions
12:15 AM 37.6 °F 31.6 °F 30.4 °F 75% 30.32 in 10.0 mi South 8.1 mph - N/A   Overcast
12:35 AM 37.6 °F 32.3 °F 30.4 °F 75% 30.33 in 10.0 mi South 6.9 mph - N/A   Overcast
12:55 AM 37.4 °F 32.1 °F 30.7 °F 77% 30.33 in 10.0 mi South 6.9 mph - N/A   Overcast
1:15 AM 37.4 °F 32.8 °F 30.9 °F 77% 30.33 in 10.0 mi South 5.8 mph - N/A   Overcast
1:35 AM 37.4 °F 32.1 °F 31.1 °F 78% 30.32 in 10.0 mi SSE 6.9 mph - N/A   Overcast
1:55 AM 36.9 °F 30.7 °F 31.1 °F 80% 30.32 in 10.0 mi South 8.1 mph - N/A   Overcast
2:15 AM 36.7 °F 31.2 °F 31.1 °F 80% 30.32 in 10.0 mi SSW 6.9 mph - N/A   Overcast
2:35 AM 36.5 °F 30.3 °F 31.3 °F 81% 30.32 in 10.0 mi South 8.1 mph - N/A Rain Rain
2:55 AM 36.5 °F 29.2 °F 32.0 °F 84% 30.32 in 10.0 mi South 10.4 mph - N/A   Light Drizzle
3:15 AM 35.6 °F 28.6 °F 32.5 °F 89% 30.32 in 10.0 mi South 9.2 mph - N/A Rain Rain
3:35 AM 34.5 °F 27.3 °F 32.4 °F 92% 30.31 in 4.0 mi South 9.2 mph - 0.04 in Rain Rain
3:55 AM 35.1 °F 30.1 °F 33.3 °F 93% 30.30 in 7.0 mi South 5.8 mph - 0.05 in Rain Light Rain
4:15 AM 35.6 °F 29.9 °F 33.8 °F 93% 30.30 in 10.0 mi South 6.9 mph - N/A   Overcast
4:35 AM 36.0 °F 32.1 °F 34.2 °F 93% 30.31 in 10.0 mi South 4.6 mph - N/A   Overcast
4:55 AM 36.5 °F - 34.2 °F 91% 30.32 in 10.0 mi Calm Calm - N/A   Overcast
5:15 AM 36.9 °F 33.1 °F 34.5 °F 91% 30.32 in 10.0 mi SSW 4.6 mph - N/A   Overcast
5:35 AM 36.9 °F 33.1 °F 34.0 °F 89% 30.32 in 10.0 mi SSW 4.6 mph - N/A   Overcast
5:55 AM 36.9 °F 34.3 °F 33.8 °F 89% 30.32 in 10.0 mi SW 3.5 mph - N/A   Overcast
6:15 AM 37.2 °F 34.7 °F 34.2 °F 89% 30.33 in 10.0 mi SSW 3.5 mph - N/A   Overcast
6:35 AM 37.2 °F 34.7 °F 34.0 °F 88% 30.34 in 10.0 mi SW 3.5 mph - N/A   Overcast
6:55 AM 37.4 °F - 34.2 °F 88% 30.35 in 10.0 mi Calm Calm - N/A   Overcast
7:15 AM 37.4 °F - 34.7 °F 90% 30.35 in 10.0 mi Calm Calm - N/A   Overcast
7:35 AM 37.4 °F 33.8 °F 35.1 °F 91% 30.36 in 10.0 mi SSE 4.6 mph - N/A   Overcast
7:55 AM 37.4 °F 34.9 °F 35.1 °F 91% 30.36 in 10.0 mi SSE 3.5 mph - N/A   Overcast
8:15 AM 37.8 °F 35.3 °F 35.2 °F 91% 30.36 in 10.0 mi South 3.5 mph - N/A   Overcast
8:35 AM 38.3 °F 33.9 °F 35.6 °F 90% 30.36 in 10.0 mi SSE 5.8 mph - N/A   Overcast
8:55 AM 38.8 °F 33.8 °F 35.8 °F 89% 30.36 in 10.0 mi South 6.9 mph - N/A   Overcast
9:15 AM 38.5 °F 33.4 °F 35.6 °F 89% 30.37 in 10.0 mi SSE 6.9 mph - N/A   Overcast
9:55 AM 39.4 °F 33.2 °F 35.6 °F 86% 30.38 in 10.0 mi SSE 9.2 mph - N/A   Overcast
10:35 AM 40.1 °F 36.9 °F 36.3 °F 86% 30.38 in 10.0 mi SSW 4.6 mph - N/A   Overcast
10:55 AM 41.4 °F 36.2 °F 36.9 °F 84% 30.38 in 10.0 mi South 8.1 mph - N/A   Overcast
11:15 AM 42.6 °F 38.4 °F 37.2 °F 81% 30.37 in 10.0 mi SSE 6.9 mph - N/A   Overcast
11:35 AM 43.2 °F 37.4 °F 37.0 °F 79% 30.38 in 10.0 mi South 10.4 mph - N/A   Overcast
11:55 AM 44.6 °F 39.7 °F 37.9 °F 77% 30.38 in 10.0 mi SSE 9.2 mph - N/A   Overcast
12:15 PM 43.7 °F 36.9 °F 37.2 °F 78% 30.38 in 10.0 mi SSE 13.8 mph - N/A   Overcast
12:35 PM 43.5 °F 36.4 °F 37.6 °F 80% 30.37 in 10.0 mi SSE 15.0 mph - N/A   Overcast
12:55 PM 43.9 °F 37.5 °F 37.9 °F 80% 30.37 in 10.0 mi South 12.7 mph 18.4 mph N/A   Overcast
1:15 PM 44.4 °F 38.2 °F 38.1 °F 79% 30.36 in 10.0 mi South 12.7 mph - N/A   Overcast
1:35 PM 44.8 °F 38.7 °F 38.1 °F 77% 30.35 in 10.0 mi SSE 12.7 mph 17.3 mph N/A   Overcast
1:55 PM 45.5 °F 38.9 °F 38.1 °F 75% 30.35 in 10.0 mi SSE 15.0 mph 18.4 mph N/A   Overcast
2:15 PM 45.9 °F 40.4 °F 37.9 °F 74% 30.35 in 10.0 mi South 11.5 mph 18.4 mph N/A   Overcast
2:35 PM 46.2 °F 39.8 °F 38.3 °F 74% 30.35 in 10.0 mi SSE 15.0 mph 21.9 mph N/A   Overcast
2:55 PM 45.7 °F 39.5 °F 38.5 °F 76% 30.35 in 10.0 mi SSE 13.8 mph - N/A   Overcast
3:15 PM 45.1 °F 38.8 °F 38.3 °F 77% 30.34 in 10.0 mi SSE 13.8 mph - N/A   Overcast
3:35 PM 45.0 °F 38.5 °F 38.3 °F 77% 30.34 in 10.0 mi SSE 13.8 mph - N/A   Overcast
3:55 PM 44.6 °F 38.4 °F 38.5 °F 79% 30.34 in 10.0 mi SSE 12.7 mph - N/A   Overcast
4:15 PM 44.6 °F 38.8 °F 38.5 °F 79% 30.33 in 10.0 mi SSE 11.5 mph - N/A   Overcast
4:35 PM 45.5 °F 40.8 °F 38.3 °F 76% 30.33 in 10.0 mi SSE 9.2 mph - N/A   Overcast
4:55 PM 46.4 °F 41.5 °F 38.7 °F 74% 30.33 in 10.0 mi SSE 10.4 mph - N/A   Overcast
5:15 PM 46.8 °F - 38.5 °F 73% 30.32 in 10.0 mi SSE 8.1 mph - N/A   Overcast
5:35 PM 47.3 °F - 38.7 °F 72% 30.32 in 10.0 mi South 8.1 mph - N/A   Overcast
5:55 PM 47.8 °F - 38.7 °F 70% 30.32 in 10.0 mi South 9.2 mph - N/A   Overcast
6:15 PM 48.4 °F - 38.8 °F 70% 30.32 in 10.0 mi SSE 8.1 mph - N/A   Overcast
6:35 PM 49.3 °F - 39.0 °F 68% 30.32 in 10.0 mi SSE 9.2 mph - N/A   Overcast
6:55 PM 49.6 °F - 39.4 °F 68% 30.30 in 10.0 mi SSE 8.1 mph - N/A   Mostly Cloudy
7:15 PM 49.5 °F - 39.4 °F 68% 30.31 in 10.0 mi SE 8.1 mph - N/A   Scattered Clouds
7:35 PM 48.6 °F - 38.7 °F 69% 30.31 in 10.0 mi SE 4.6 mph - N/A   Scattered Clouds
7:55 PM 48.7 °F - 38.7 °F 68% 30.31 in 10.0 mi SE 6.9 mph - N/A   Mostly Cloudy
8:15 PM 47.7 °F - 39.2 °F 72% 30.32 in 10.0 mi SSE 3.5 mph - N/A   Mostly Cloudy
8:35 PM 47.3 °F - 39.7 °F 75% 30.32 in 10.0 mi SE 4.6 mph - N/A   Mostly Cloudy
8:55 PM 46.8 °F - 40.1 °F 78% 30.31 in 10.0 mi SE 4.6 mph - N/A   Overcast
9:15 PM 44.1 °F 40.1 °F 39.4 °F 84% 30.31 in 10.0 mi SE 6.9 mph - N/A   Scattered Clouds
9:35 PM 42.8 °F 40.1 °F 39.0 °F 86% 30.32 in 10.0 mi SE 4.6 mph - N/A   Scattered Clouds
9:55 PM 41.4 °F 38.4 °F 38.3 °F 89% 30.32 in 10.0 mi ESE 4.6 mph - N/A   Clear
10:15 PM 40.1 °F 38.0 °F 37.2 °F 89% 30.34 in 10.0 mi SE 3.5 mph - N/A   Clear
10:35 PM 39.2 °F 37.0 °F 36.9 °F 91% 30.34 in 10.0 mi SE 3.5 mph - N/A   Clear
10:55 PM 38.7 °F 34.3 °F 36.7 °F 93% 30.34 in 10.0 mi SE 5.8 mph - N/A   Clear
11:15 PM 39.4 °F 35.2 °F 37.2 °F 92% 30.34 in 10.0 mi SE 5.8 mph - N/A   Clear
11:35 PM 38.8 °F 34.6 °F 36.9 °F 93% 30.34 in 10.0 mi SE 5.8 mph - N/A   Clear
11:55 PM 39.9 °F 34.5 °F 38.1 °F 93% 30.34 in 10.0 mi South 8.1 mph - N/A   Scattered Clouds